TimeMDT,TemperatureF,Dew PointF,Humidity,Sea Level PressureIn,VisibilityMPH,Wind Direction,Wind SpeedMPH,Gust SpeedMPH,PrecipitationIn,Events,Conditions,WindDirDegrees,DateUTC
12:53 AM,37.9,26.1,62,29.73,10.0,East,4.6,-,N/A,,Mostly Cloudy,90,2012-10-22 06:53:00
1:53 AM,39.0,26.1,60,29.72,10.0,SSE,5.8,-,N/A,,Overcast,160,2012-10-22 07:53:00
2:53 AM,35.6,32.0,87,29.87,5.0,Calm,Calm,-,N/A,Rain,Rain,0,2012-10-22 08:53:00
3:17 AM,37.4,33.8,87,29.87,10.0,East,3.5,-,0.01,Rain,Light Rain,100,2012-10-22 09:17:00
3:53 AM,37.0,35.1,93,29.74,10.0,Calm,Calm,-,0.01,,Overcast,0,2012-10-22 09:53:00
4:53 AM,37.9,36.0,93,29.74,10.0,North,3.5,-,0.00,,Overcast,10,2012-10-22 10:53:00
5:03 AM,37.4,35.6,93,29.88,10.0,North,3.5,-,N/A,Rain,Light Rain,350,2012-10-22 11:03:00
5:53 AM,37.9,37.0,97,29.73,10.0,ENE,4.6,-,N/A,,Overcast,60,2012-10-22 11:53:00
6:41 AM,37.4,37.4,100,29.87,10.0,North,5.8,-,N/A,,Overcast,360,2012-10-22 12:41:00
6:53 AM,37.4,37.4,100,29.86,10.0,North,6.9,-,N/A,Rain,Light Rain,10,2012-10-22 12:53:00
7:27 AM,39.2,37.4,93,29.85,6.0,ENE,5.8,-,N/A,Rain,Light Rain,60,2012-10-22 13:27:00
7:53 AM,37.9,37.0,97,29.72,7.0,North,5.8,-,N/A,Rain,Light Rain,10,2012-10-22 13:53:00
8:51 AM,37.4,35.6,93,29.84,10.0,NNW,5.8,-,0.00,Rain,Light Rain,330,2012-10-22 14:51:00
8:53 AM,37.9,36.0,93,29.72,10.0,NNW,6.9,-,0.00,Rain,Light Rain,340,2012-10-22 14:53:00
9:10 AM,37.4,35.6,93,29.83,10.0,NW,9.2,-,0.00,Rain,Light Rain,320,2012-10-22 15:10:00
9:53 AM,36.0,35.1,97,29.74,10.0,North,5.8,-,0.00,Rain,Light Rain,350,2012-10-22 15:53:00
10:53 AM,39.2,35.6,87,29.82,10.0,NW,4.6,-,N/A,,Overcast,320,2012-10-22 16:53:00
11:53 AM,41.0,37.9,89,29.68,10.0,Calm,Calm,-,N/A,,Mostly Cloudy,0,2012-10-22 17:53:00
12:19 PM,42.8,37.4,81,29.79,10.0,SSE,4.6,-,N/A,,Overcast,160,2012-10-22 18:19:00
12:33 PM,42.8,39.2,87,29.78,10.0,SSE,4.6,-,N/A,,Overcast,160,2012-10-22 18:33:00
12:53 PM,45.0,39.9,82,29.65,10.0,SSE,5.8,-,N/A,,Overcast,160,2012-10-22 18:53:00
1:06 PM,46.4,41.0,81,29.76,10.0,South,6.9,-,N/A,,Overcast,180,2012-10-22 19:06:00
1:53 PM,48.0,42.1,80,29.60,10.0,South,11.5,-,0.00,Rain,Light Rain,190,2012-10-22 19:53:00
2:53 PM,53.1,41.0,64,29.56,10.0,SW,13.8,24.2,0.00,,Partly Cloudy,230,2012-10-22 20:53:00
3:53 PM,52.0,42.1,69,29.54,10.0,SSW,13.8,-,N/A,,Clear,200,2012-10-22 21:53:00
4:53 PM,51.1,35.1,54,29.55,10.0,WSW,16.1,27.6,N/A,,Scattered Clouds,250,2012-10-22 22:53:00
5:53 PM,46.0,37.0,71,29.58,10.0,North,9.2,-,N/A,,Partly Cloudy,350,2012-10-22 23:53:00
6:53 PM,41.0,37.0,86,29.63,9.0,WNW,23.0,27.6,0.00,Rain,Light Rain,300,2012-10-23 00:53:00
7:20 PM,41.0,37.4,87,29.74,5.0,SW,20.7,29.9,0.03,Rain,Rain,230,2012-10-23 01:20:00
7:50 PM,41.0,37.4,87,29.73,10.0,WSW,16.1,-,0.05,Rain,Light Rain,250,2012-10-23 01:50:00
7:53 PM,41.0,37.0,86,29.63,10.0,WSW,16.1,-,0.05,Rain,Light Rain,240,2012-10-23 01:53:00
8:53 PM,42.1,37.0,82,29.61,10.0,WSW,16.1,-,0.00,Rain,Light Rain,240,2012-10-23 02:53:00
9:53 PM,41.0,37.0,86,29.64,8.0,WSW,21.9,31.1,0.01,Rain,Rain,240,2012-10-23 03:53:00
10:11 PM,41.0,37.4,87,29.70,5.0,WSW,15.0,21.9,0.01,Rain,Rain,250,2012-10-23 04:11:00
10:26 PM,39.2,37.4,93,29.70,10.0,SW,11.5,-,0.02,,Overcast,220,2012-10-23 04:26:00
10:53 PM,41.0,37.0,86,29.60,10.0,SW,13.8,-,0.02,Rain,Light Rain,230,2012-10-23 04:53:00
11:53 PM,39.2,37.4,93,29.72,10.0,West,6.9,-,N/A,Rain,Light Rain,280,2012-10-23 05:53:00